Regional Weather Roundup
Issued by NWS

Home | Current Version | Previous Version | Text Only | Print | Product List | Glossary Off
Versions: 1 2 3 4 5 6 7 8 9 10 11 12 13 14 15 16 17 18 19 20 21 22 23 24 25 26 27 28 29 30 31 32 33 34 35 36 37 38 39 40 41 42 43 44 45 46 47 48 49 50

000
ASUS43 KMPX 200210
RWRMN
WEATHER ROUNDUP FOR MINNESOTA
NATIONAL WEATHER SERVICE TWIN CITIES/CHANHASSEN MN
800 PM CST FRI JAN 19 2018


NOTE: "FAIR" INDICATES FEW OR NO CLOUDS BELOW 12,000 FEET WITH NO
SIGNIFICANT WEATHER AND/OR OBSTRUCTIONS TO VISIBILITY. N/A MEANS
CURRENT SKY AND/OR WEATHER CONDITIONS ARE NOT AVAILABLE.

MNZ060>063-068>070-200300-
   Twin Cities Metro

CITY           SKY/WX    TMP DP  RH WIND       PRES   REMARKS
TWIN CITIES    MOCLDY    38  33  82 S3        29.60R
ST PAUL        FAIR      31  29  92 CALM      29.60S
CRYSTAL        FAIR      36  28  73 W5        29.59R
BLAINE         MOCLDY    39  34  81 SW7       29.59R
LAKEVILLE      FAIR      39  34  81 W7        29.61R
EDEN PRAIRIE   FAIR      38  32  79 SW7       29.60R
SOUTH ST PAUL  FAIR      40  32  73 W3        29.59S
LAKE ELMO      FAIR      30  28  93 S3        29.59S
$$
MNZ001>005-007-008-013>017-022>024-027-028-200300-
   Northwest Minnesota

CITY           SKY/WX    TMP DP  RH WIND       PRES   REMARKS
BEMIDJI        FAIR      33  29  86 SW7       29.54R WCI  27
HALLOCK        FAIR      25  21  86 SW7       29.55R WCI  17
ROSEAU         FAIR      34  28  80 W5        29.52R WCI  30
WARROAD        MOCLDY    36  32  87 W7        29.51R
THIEF RVR FALL FAIR      34  30  85 W9        29.57R WCI  27
CROOKSTON      FAIR      34  28  80 SW9       29.60R WCI  26
FOSSTON        FAIR      28  25  86 SW7       29.58R WCI  21
DETROIT LAKES  FAIR      34  32  93 W9        29.62R WCI  26
MOORHEAD       FAIR      34  28  80 W5        29.64R WCI  30
PARK RAPIDS    FAIR      31  26  82 W10       29.57R WCI  22
MAHNOMEN       FAIR      32  29  88 W9        29.59R WCI  24
$$
MNZ006-009>011-018-025>026-200300-
   North Central Minnesota

CITY           SKY/WX    TMP DP  RH WIND       PRES   REMARKS
BAUDETTE       CLOUDY    35  30  82 NW14      29.48R WCI  26
FLAG ISLAND    MIX PCPN  34  30  86 NW17      29.48R WCI  23
INTL FALLS     CLOUDY    37  29  72 NW20G26   29.46R
WASKISH        FAIR      32  28  86 W6        29.53R WCI  26
BIG FORK       FAIR      34  28  80 SW6       29.50R WCI  29
LONGVILLE      FAIR      36  28  75 W7        29.55R
GRAND RAPIDS   FAIR      37  29  72 W9        29.54R
CRANE LAKE     MOCLDY    36  30  80 W3        29.46R
ORR            FAIR      34  27  75 W6        29.44R WCI  29
COOK           CLOUDY    36  30  80 SW9       29.48R
WALKER         FAIR      35  29  79 W9        29.55R WCI  27
$$
MNZ012-019>021-037-200300-
   Northeast Minnesota

CITY           SKY/WX    TMP DP  RH WIND       PRES   REMARKS
DULUTH         FAIR      40  28  62 W13       29.48R
ELY            MOCLDY    36  28  75 SW6       29.44R
HIBBING        FAIR      35  28  75 W6        29.49R WCI  30
EVELETH        FAIR      35  26  71 W8        29.49R WCI  28
DULUTH HARBOR  FAIR      37  30  75 SW12      29.50R
TWO HARBORS    FAIR      41  30  65 W9        29.44R
GRAND MARAIS     N/A     37  32  82 W6        29.41R
G MARAIS ARPRT MOCLDY    36  27  69 W10G22    29.38R
$$
MNZ029>031-032-039>041-046>048-054>057-064-200300-
   West Central Minnesota

CITY           SKY/WX    TMP DP  RH WIND       PRES   REMARKS
FERGUS FALLS   FAIR      30  28  93 W6        29.64R WCI  24
WHEATON        PTCLDY    36  28  75 W3        29.68R
MORRIS         CLOUDY    36  30  80 NW9       29.64S
ALEXANDRIA     FAIR      35  30  82 W9        29.63R WCI  28
ELBOW LAKE     FAIR      31  30  94 NW6       29.65R WCI  25
WADENA         FAIR      30  27  86 W7        29.60R WCI  23
GLENWOOD       FAIR      36  30  80 W10       29.64R
APPLETON       CLOUDY    36  28  75 W6        29.67R
BENSON         CLOUDY    36  30  80 CALM      29.66S
ORTONVILLE     PTCLDY    37  28  70 W6        29.67R
MADISON        CLOUDY    37  30  75 W7        29.68R
WILLMAR        FAIR      36  30  80 W8        29.67R
$$
MNZ033>034-036-042>043-049>051-058-059-200300-
   Central Minnesota

CITY           SKY/WX    TMP DP  RH WIND       PRES   REMARKS
ST CLOUD       FAIR      36  29  75 W8        29.60R
SAUK CENTRE      N/A     34  30  84 NW6       29.62R WCI  29
PAYNESVILLE    FAIR      35  32  88 W8        29.63R WCI  29
AITKIN         FAIR      37  27  65 W7        29.55R
PINE RIVER     FAIR      34  27  75 W3        29.62R
BRAINERD       FAIR      38  28  67 W9        29.58R
STAPLES        FAIR      30  27  86 W8        29.60R WCI  23
LONG PRAIRIE   FAIR      34  30  86 W8        29.62R WCI  27
LITTLE FALLS   FAIR      36  25  64 W8        29.61R
LITCHFIELD     FAIR      37  32  81 W5        29.64R
BUFFALO        FAIR      35  29  78 CALM      29.62R
MAPLE LAKE     FAIR      38  32  77 MISG      29.62R
HUTCHINSON     FAIR      36  32  85 W8        29.64R
$$
MNZ037-044-045-052-053-200300-
   East Central Minnesota

CITY           SKY/WX    TMP DP  RH WIND       PRES   REMARKS
PRINCETON      FAIR      37  28  70 CALM      29.59R
MORA           FAIR      32  27  80 CALM      29.58R
CAMBRIDGE      FAIR      36  27  69 SW3       29.59R
RUSH CITY      FAIR      33  28  81 SW3       29.57R
MOOSE LAKE     FAIR      34  28  80 SW5       29.52R WCI  30
HINCKLEY       FAIR      32  28  86 CALM      29.55R
CLOQUET        FAIR      37  25  60 SW6       29.50R
MCGREGOR       FAIR      39  30  70 W6        29.53R
$$
MNZ071>073-080-081-089-090-097-098-200300-
   Southwest Minnesota

CITY           SKY/WX    TMP DP  RH WIND       PRES   REMARKS
MONTEVIDEO     CLOUDY    37  30  75 NW5       29.67R
GRANITE FALLS  PTCLDY    34  30  86 W7        29.69R WCI  28
CANBY          CLOUDY    39  29  67 NW5       29.69R
MARSHALL       CLOUDY    34  28  79 NW8       29.68R WCI  27
REDWOOD FALLS  PTCLDY    35  30  82 W9        29.66R WCI  28
OLIVIA         CLOUDY    36  32  87 NW8       29.66R
PIPESTONE      PTCLDY    36  30  80 NW6       29.68R
WINDOM         CLOUDY    36  21  55 W7        29.66R
WORTHINGTON    CLOUDY    36  31  82 W7        29.68R
JACKSON        CLOUDY    37  32  81 NW9       29.66R
TRACY          CLOUDY    39  31  73 NW6       29.67R
SLAYTON        CLOUDY    35  32  88 W6        29.68R WCI  30
$$
MNZ065>067-074>077-082>085-091>093-200300-
   South Central Minnesota

CITY           SKY/WX    TMP DP  RH WIND       PRES   REMARKS
MANKATO        FAIR      39  33  79 NW7       29.64R
NEW ULM        CLOUDY    36  30  80 W10       29.64R
ST JAMES       CLOUDY    36  32  87 W8        29.66R
FAIRMONT       CLOUDY    39  32  76 NW9       29.65R
FARIBAULT      FAIR      36  32  87 CALM      29.63R
OWATONNA       FAIR      36  32  87 W5        29.62S
WASECA         FAIR      36  32  87 W3        29.63S
ALBERT LEA     FAIR      37  30  75 W3        29.63R
$$
MNZ078>079-086>088-094>096-200300-
   Southeast Minnesota

CITY           SKY/WX    TMP DP  RH WIND       PRES   REMARKS
ROCHESTER      FAIR      35  31  85 SW9       29.61R WCI  28
RED WING       FAIR      30  27  86 CALM      29.61R
STANTON        FAIR      36  32  84 SW6       29.61R
DODGE CENTER   FAIR      34  30  86 W7        29.61S WCI  28
WINONA         FAIR      37  32  81 CALM      29.61S
AUSTIN         FAIR      36  30  80 SW7       29.62S
PRESTON        FAIR      37  30  78 SW12      29.62S
$$
ABBREVIATIONS USED IN REMARKS
   TC - TEMPERATURES IN CELSIUS
  WCI - WIND CHILL INDEX
   HX - HEAT INDEX
  VSB - VISIBILITY
$$




USA.gov is the U.S. government's official web portal to all federal, state and local government web resources and services.